Weather History for Washington, MO

Change the Weather History Date:

Friday, November 23, 2012

  Actual Average (KSTL) Record (KSTL)
Temperature  
Mean Temperature 39 °F 43 °F  
Max Temperature 50 °F 52 °F 75 °F (1931)
Min Temperature 28 °F 35 °F 8 °F (1950)
Degree Days  
Heating Degree Days 26 22  
Month to date heating degree days 383  
Since 1 July heating degree days 659  
Cooling Degree Days 0 0  
Month to date cooling degree days 0  
Year to date cooling degree days 1642  
Moisture  
Dew Point 25 °F    
Average Humidity 59    
Maximum Humidity 81    
Minimum Humidity 39    
Precipitation  
Precipitation 0.00 in 0.13 in 1.50 in (1983)
Month to date precipitation 2.99  
Year to date precipitation 37.20  
Snow  
Snow - 0.00 in 3.40 in (1938)
Month to date snowfall 0.4  
Since 1 July snowfall 0.4  
Since 1 September snowfall 0.4  
Snow Depth -    
Sea Level Pressure  
Sea Level Pressure 30.28 in    
Wind  
Wind Speed 10 mph ()    
Max Wind Speed 22 mph    
Max Gust Speed 29 mph    
Visibility 10.0 miles    
Events      
T = Trace of Precipitation, MM = Missing Value Source: Averaged Metar Reports

Daily Weather History Graph

Daily Weather History Graph

Search for Another Location

Airport:

Trip Planner

Search our weather history database for the weather conditions in past years. The results will help you decide how hot, cold, wet, or windy it might be!

Date:

Astronomy

Nov. 23, 2012 Rise Set
Actual Time 6:55 AM CST 4:45 PM CST
Civil Twilight 6:26 AM CST 5:14 PM CST
Nautical Twilight 5:53 AM CST 5:47 PM CST
Astronomical Twilight 5:21 AM CST 6:18 PM CST
Moon 1:58 PM CST 2:17 AM CST
Length of Visible Light 10h 48m
Length of Day
9h 50m
Waxing Gibbous, 80% of the Moon is Illuminated
Nov 23
Waxing Gibbous
Nov 28
Full
Dec 6
Last Quarter
Dec 13
New
Dec 19
First Quarter

Hourly Weather History & Observations

Time (CST) Temp. Windchill Dew Point Humidity Pressure Visibility Wind Dir Wind Speed Gust Speed Precip Events Conditions
12:15 AM 50.0 °F - 39.2 °F 66% 30.13 in 10.0 mi NW 15.0 mph 19.6 mph N/A   Overcast
12:55 AM 48.2 °F - 37.4 °F 66% 30.15 in 10.0 mi NW 16.1 mph - N/A   Mostly Cloudy
1:15 AM 48.2 °F - 37.4 °F 66% 30.16 in 10.0 mi NW 13.8 mph - N/A   Mostly Cloudy
1:35 AM 48.2 °F - 37.4 °F 66% 30.17 in 10.0 mi NW 16.1 mph - N/A   Partly Cloudy
1:55 AM 46.4 °F 41.1 °F 37.4 °F 71% 30.18 in 10.0 mi NNW 11.5 mph - N/A   Clear
2:15 AM 46.4 °F 41.1 °F 35.6 °F 66% 30.19 in 10.0 mi NW 11.5 mph 19.6 mph N/A   Clear
2:35 AM 46.4 °F 40.7 °F 35.6 °F 66% 30.19 in 10.0 mi NW 12.7 mph 20.7 mph N/A   Clear
2:55 AM 44.6 °F 39.2 °F 35.6 °F 71% 30.19 in 10.0 mi NW 10.4 mph - N/A   Clear
3:15 AM 44.6 °F 42.2 °F 33.8 °F 66% 30.19 in 10.0 mi NW 4.6 mph - N/A   Clear
3:35 AM 42.8 °F - 35.6 °F 76% 30.19 in 10.0 mi Calm Calm - N/A   Clear
3:55 AM 42.8 °F - 33.8 °F 70% 30.19 in 10.0 mi Calm Calm - N/A   Clear
4:15 AM 41.0 °F - 33.8 °F 76% 30.19 in 10.0 mi Calm Calm - N/A   Clear
4:35 AM 41.0 °F - 33.8 °F 76% 30.20 in 10.0 mi Calm Calm - N/A   Clear
4:55 AM 41.0 °F - 33.8 °F 76% 30.19 in 10.0 mi Calm Calm - N/A   Clear
5:15 AM 41.0 °F - 32.0 °F 70% 30.19 in 10.0 mi Calm Calm - N/A   Clear
5:35 AM 39.2 °F - 32.0 °F 75% 30.19 in 10.0 mi Calm Calm - N/A   Clear
5:55 AM 39.2 °F - 32.0 °F 75% 30.19 in 10.0 mi Calm Calm - N/A   Clear
6:15 AM 39.2 °F - 32.0 °F 75% 30.19 in 10.0 mi Calm Calm - N/A   Clear
6:35 AM 41.0 °F - 32.0 °F 70% 30.20 in 10.0 mi Calm Calm - N/A   Mostly Cloudy
6:55 AM 39.2 °F 34.2 °F 32.0 °F 75% 30.21 in 10.0 mi WNW 6.9 mph - N/A   Scattered Clouds
7:15 AM 39.2 °F - 33.8 °F 81% 30.22 in 10.0 mi Calm Calm - N/A   Clear
7:35 AM 39.2 °F 33.0 °F 33.8 °F 81% 30.23 in 10.0 mi NW 9.2 mph - N/A   Scattered Clouds
7:55 AM 41.0 °F 34.3 °F 33.8 °F 76% 30.24 in 10.0 mi NW 11.5 mph - N/A   Overcast
8:15 AM 41.0 °F 31.6 °F 32.0 °F 70% 30.25 in 10.0 mi NW 20.7 mph 28.8 mph N/A   Overcast
8:35 AM 41.0 °F 31.6 °F 30.2 °F 65% 30.26 in 10.0 mi NNW 20.7 mph 26.5 mph N/A   Overcast
8:55 AM 41.0 °F 32.2 °F 28.4 °F 61% 30.27 in 10.0 mi NNW 18.4 mph 21.9 mph N/A   Overcast
9:15 AM 41.0 °F 31.4 °F 28.4 °F 61% 30.28 in 10.0 mi NNW 21.9 mph 26.5 mph N/A   Overcast
9:35 AM 41.0 °F 32.2 °F 26.6 °F 57% 30.29 in 10.0 mi NW 18.4 mph 27.6 mph N/A   Mostly Cloudy
10:15 AM 41.0 °F 33.1 °F 26.6 °F 57% 30.31 in 10.0 mi NW 15.0 mph - N/A   Mostly Cloudy
10:35 AM 41.0 °F 33.1 °F 26.6 °F 57% 30.31 in 10.0 mi NW 15.0 mph 27.6 mph N/A   Scattered Clouds
10:55 AM 41.0 °F 32.5 °F 26.6 °F 57% 30.31 in 10.0 mi NW 17.3 mph 27.6 mph N/A   Partly Cloudy
11:15 AM 41.0 °F 32.8 °F 24.8 °F 53% 30.31 in 10.0 mi NW 16.1 mph 24.2 mph N/A   Clear
11:35 AM 41.0 °F 31.4 °F 24.8 °F 53% 30.30 in 10.0 mi WNW 21.9 mph - N/A   Clear
11:55 AM 41.0 °F 31.6 °F 23.0 °F 49% 30.29 in 10.0 mi NW 20.7 mph - N/A   Clear
12:15 PM 41.0 °F 32.8 °F 23.0 °F 49% 30.29 in 10.0 mi WNW 16.1 mph 24.2 mph N/A   Clear
12:35 PM 41.0 °F 31.9 °F 23.0 °F 49% 30.29 in 10.0 mi WNW 19.6 mph 25.3 mph N/A   Clear
1:15 PM 41.0 °F 31.4 °F 19.4 °F 42% 30.28 in 10.0 mi WNW 21.9 mph 28.8 mph N/A   Clear
1:55 PM 42.8 °F 34.5 °F 19.4 °F 39% 30.29 in 10.0 mi NW 18.4 mph 26.5 mph N/A   Clear
2:15 PM 41.0 °F 33.1 °F 17.6 °F 39% 30.29 in 10.0 mi NW 15.0 mph 26.5 mph N/A   Clear
2:35 PM 41.0 °F 32.2 °F 19.4 °F 42% 30.30 in 10.0 mi WNW 18.4 mph 25.3 mph N/A   Clear
2:55 PM 41.0 °F 31.9 °F 17.6 °F 39% 30.30 in 10.0 mi WNW 19.6 mph 25.3 mph N/A   Clear
3:15 PM 41.0 °F 32.2 °F 17.6 °F 39% 30.30 in 10.0 mi WNW 18.4 mph 27.6 mph N/A   Clear
3:35 PM 41.0 °F 32.5 °F 17.6 °F 39% 30.31 in 10.0 mi WNW 17.3 mph 24.2 mph N/A   Clear
3:55 PM 41.0 °F 33.1 °F 17.6 °F 39% 30.31 in 10.0 mi NW 15.0 mph 24.2 mph N/A   Clear
4:15 PM 39.2 °F 30.2 °F 19.4 °F 45% 30.32 in 10.0 mi WNW 17.3 mph 21.9 mph N/A   Clear
4:35 PM 39.2 °F 31.6 °F 19.4 °F 45% 30.32 in 10.0 mi NW 12.7 mph - N/A   Clear
4:55 PM 37.4 °F 29.8 °F 17.6 °F 45% 30.33 in 10.0 mi NW 11.5 mph 17.3 mph N/A   Clear
5:15 PM 37.4 °F 30.3 °F 17.6 °F 45% 30.33 in 10.0 mi NNW 10.4 mph - N/A   Clear
5:35 PM 35.6 °F 28.0 °F 17.6 °F 48% 30.34 in 10.0 mi NNW 10.4 mph - N/A   Clear
5:55 PM 35.6 °F 27.1 °F 17.6 °F 48% 30.34 in 10.0 mi NW 12.7 mph 17.3 mph N/A   Clear
6:15 PM 33.8 °F 27.7 °F 19.4 °F 56% 30.35 in 10.0 mi NNW 6.9 mph - N/A   Clear
6:35 PM 33.8 °F 27.7 °F 19.4 °F 56% 30.36 in 10.0 mi NNW 6.9 mph - N/A   Clear
6:55 PM 33.8 °F 24.3 °F 17.6 °F 52% 30.36 in 10.0 mi NNW 13.8 mph - N/A   Clear
7:15 PM 33.8 °F 24.8 °F 17.6 °F 52% 30.36 in 10.0 mi NW 12.7 mph 17.3 mph N/A   Clear
7:35 PM 32.0 °F 23.6 °F 17.6 °F 55% 30.36 in 10.0 mi NW 10.4 mph - N/A   Clear
7:55 PM 32.0 °F 24.8 °F 17.6 °F 55% 30.37 in 10.0 mi NW 8.1 mph - N/A   Clear
8:15 PM 32.0 °F 23.6 °F 17.6 °F 55% 30.37 in 10.0 mi NW 10.4 mph - N/A   Partly Cloudy
8:35 PM 32.0 °F 24.2 °F 17.6 °F 55% 30.37 in 10.0 mi NW 9.2 mph - N/A   Partly Cloudy
8:55 PM 32.0 °F 23.6 °F 17.6 °F 55% 30.37 in 10.0 mi NW 10.4 mph 17.3 mph N/A   Partly Cloudy
9:15 PM 32.0 °F 24.2 °F 17.6 °F 55% 30.38 in 10.0 mi NW 9.2 mph - N/A   Clear
9:35 PM 32.0 °F 25.6 °F 17.6 °F 55% 30.38 in 10.0 mi NW 6.9 mph - N/A   Clear
9:55 PM 30.2 °F 24.3 °F 17.6 °F 60% 30.37 in 10.0 mi NW 5.8 mph - N/A   Clear
10:15 PM 30.2 °F 25.4 °F 17.6 °F 60% 30.37 in 10.0 mi NW 4.6 mph - N/A   Clear
10:35 PM 28.4 °F 24.6 °F 17.6 °F 64% 30.37 in 10.0 mi NW 3.5 mph - N/A   Clear
10:55 PM 28.4 °F 23.3 °F 17.6 °F 64% 30.37 in 10.0 mi NNW 4.6 mph - N/A   Clear
11:15 PM 28.4 °F 23.3 °F 17.6 °F 64% 30.37 in 10.0 mi NW 4.6 mph - N/A   Clear
11:35 PM 28.4 °F 24.6 °F 17.6 °F 64% 30.37 in 10.0 mi NW 3.5 mph - N/A   Clear